Track STARLINK-1516 now! 10-day predictions STARLINK-1516 is classified as:
1 45749U 20038V 21018.74119592 .00072810 13170-4 21590-3 0 9996 2 45749 52.9892 286.7258 0007757 268.5693 91.4444 15.92678004 34712